Find Kuafu-1

NORAD ID: 54029 Int'l Des: 2022-129 Owner: CAS Country: CN operational
LEOCIRCULARRETROGRADESSO

实时位置

正在加载3D地球...

关于 Kuafu-1

正在加载描述...

即将过境

Passes for default location (London). Set your location on the main map for personalized predictions.

高度历史

Loading altitude history...

两行轨道根数

1 54029U 22129A 26106.99381031 .00000112 00000-0 38787-4 0 9996
2 54029 98.2770 112.9480 0013052 282.0793 77.8940 14.52032766186547
Epoch: Apr 16, 2026 • Age: 8 hours

当前状态

高度 729.0 km
速度 7.49 km/s
星下点 -46.09°S, 157.86°E
发射日期 Oct 8, 2022
运行时间 3.5 years
类型 other

技术详情

分类 Payload
质量 888.00 kg
干质量 888.00 kg
总质量 888.00 kg
长度 2.00 m
直径 1.50 m
跨度 3.50 m
形状 Box + 2 pan
制造商 CAST
平台类型 ASO-S
阶段状态 In Orbit
所有者/国家 CAS/CN

Most Searched